{"data":{"norad_id":67354,"intl_designator":"2026-003W","name":"STARLINK-36448","alt_names":[],"object_type":"PAYLOAD","status":"ACTIVE","operator":null,"country":"US","launch_date":"2026-01-09","launch_site_code":"AFETR","launch_vehicle":null,"mission":null,"orbit_class":"UNKNOWN","rcs_meters":null,"size_class":null,"mass_kg":null,"dimensions":null,"purposes":["comms"],"wikipedia_slug":null,"has_3d_model":false,"image_url":null,"decayed_at":null,"tle_current":{"epoch":"2026-05-25T01:32:26.580192Z","epoch_age_seconds":63464,"freshness":"FRESH","line1":"1 67354U 26003W   26145.06419653  .00006066  00000+0  22966-3 0  9993","line2":"2 67354  43.0007 155.8088 0000621 271.4296  88.6485 15.27593280 20504","mean_motion":15.2759328,"eccentricity":6.21e-5,"inclination_deg":43.0007,"raan_deg":155.8088,"arg_perigee_deg":271.4296,"mean_anomaly_deg":88.6485,"bstar":0.00022966,"rev_number":2050,"period_min":94.265929213828,"perigee_km":482.58325404311,"apogee_km":483.43540841745,"semimajor_km":6861.1463312303,"source":"CELESTRAK","updated_at":"2026-05-25T13:38:21.526527Z"}}}